Year,Month,Day,Hour,Minute,Value (Times are PST for windspeed in km/hr)
2011,07,07,00,00,1.70
2011,07,07,00,01,0.60
2011,07,07,00,02,0.20
2011,07,07,00,03,2.40
2011,07,07,00,04,3.90
2011,07,07,00,05,4.30
2011,07,07,00,06,3.90
2011,07,07,00,07,2.30
2011,07,07,00,08,1.10
2011,07,07,00,09,0.60
2011,07,07,00,10,0.70
2011,07,07,00,11,0.20
2011,07,07,00,12,0.00
2011,07,07,00,13,0.20
2011,07,07,00,14,2.40
2011,07,07,00,15,3.20
2011,07,07,00,16,3.70
2011,07,07,00,17,3.60
2011,07,07,00,18,1.00
2011,07,07,00,19,0.20
2011,07,07,00,20,3.20
2011,07,07,00,21,3.90
2011,07,07,00,22,3.90
2011,07,07,00,23,2.20
2011,07,07,00,24,0.40
2011,07,07,00,25,0.60
2011,07,07,00,26,3.90
2011,07,07,00,27,3.20
2011,07,07,00,28,2.60
2011,07,07,00,29,1.40
2011,07,07,00,30,0.20
2011,07,07,00,31,0.40
2011,07,07,00,32,1.30
2011,07,07,00,33,1.00
2011,07,07,00,34,0.00
2011,07,07,00,35,0.00
2011,07,07,00,36,0.10
2011,07,07,00,37,0.00
2011,07,07,00,38,0.10
2011,07,07,00,39,0.40
2011,07,07,00,40,1.70
2011,07,07,00,41,1.70
2011,07,07,00,42,0.60
2011,07,07,00,43,0.10
2011,07,07,00,44,0.40
2011,07,07,00,45,0.70
2011,07,07,00,46,1.10
2011,07,07,00,47,1.60
2011,07,07,00,48,3.20
2011,07,07,00,49,1.20
2011,07,07,00,50,0.90
2011,07,07,00,51,0.80
2011,07,07,00,52,1.40
2011,07,07,00,53,0.90
2011,07,07,00,54,0.30
2011,07,07,00,55,2.30
2011,07,07,00,56,2.00
2011,07,07,00,57,1.90
2011,07,07,00,58,2.00
2011,07,07,00,59,2.00
2011,07,07,01,00,1.90
2011,07,07,01,01,2.30
2011,07,07,01,02,1.00
2011,07,07,01,03,0.60
2011,07,07,01,04,1.80
2011,07,07,01,05,1.40
2011,07,07,01,06,2.30
2011,07,07,01,07,1.50
2011,07,07,01,08,0.70
2011,07,07,01,09,1.00
2011,07,07,01,10,0.30
2011,07,07,01,11,0.20
2011,07,07,01,12,0.80
2011,07,07,01,13,2.60
2011,07,07,01,14,3.30
2011,07,07,01,15,1.80
2011,07,07,01,16,0.20
2011,07,07,01,17,0.20
2011,07,07,01,18,0.80
2011,07,07,01,19,1.10
2011,07,07,01,20,0.80
2011,07,07,01,21,2.90
2011,07,07,01,22,1.60
2011,07,07,01,23,1.50
2011,07,07,01,24,2.60
2011,07,07,01,25,3.50
2011,07,07,01,26,2.30
2011,07,07,01,27,2.20
2011,07,07,01,28,2.10
2011,07,07,01,29,2.10
2011,07,07,01,30,1.30
2011,07,07,01,31,2.10
2011,07,07,01,32,1.80
2011,07,07,01,33,2.80
2011,07,07,01,34,3.10
2011,07,07,01,35,1.90
2011,07,07,01,36,1.30
2011,07,07,01,37,1.80
2011,07,07,01,38,2.20
2011,07,07,01,39,2.70
2011,07,07,01,40,2.30
2011,07,07,01,41,2.10
2011,07,07,01,42,1.50
2011,07,07,01,43,2.20
2011,07,07,01,44,3.30
2011,07,07,01,45,4.30
2011,07,07,01,46,4.30
2011,07,07,01,47,3.80
2011,07,07,01,48,2.80
2011,07,07,01,49,2.00
2011,07,07,01,50,3.20
2011,07,07,01,51,2.90
2011,07,07,01,52,1.80
2011,07,07,01,53,1.10
2011,07,07,01,54,1.50
2011,07,07,01,55,1.50
2011,07,07,01,56,0.50
2011,07,07,01,57,2.00
2011,07,07,01,58,2.30
2011,07,07,01,59,0.90
2011,07,07,02,00,1.50
2011,07,07,02,01,1.10
2011,07,07,02,02,2.40
2011,07,07,02,03,0.90
2011,07,07,02,04,1.20
2011,07,07,02,05,1.40
2011,07,07,02,06,3.10
2011,07,07,02,07,1.90
2011,07,07,02,08,2.20
2011,07,07,02,09,2.50
2011,07,07,02,10,2.50
2011,07,07,02,11,2.60
2011,07,07,02,12,2.60
2011,07,07,02,13,3.50
2011,07,07,02,14,1.40
2011,07,07,02,15,2.20
2011,07,07,02,16,1.40
2011,07,07,02,17,0.20
2011,07,07,02,18,1.00
2011,07,07,02,19,2.40
2011,07,07,02,20,2.80
2011,07,07,02,21,2.20
2011,07,07,02,22,1.40
2011,07,07,02,23,2.70
2011,07,07,02,24,3.40
2011,07,07,02,25,3.20
2011,07,07,02,26,2.30
2011,07,07,02,27,3.10
2011,07,07,02,28,4.10
2011,07,07,02,29,3.30
2011,07,07,02,30,3.80
2011,07,07,02,31,3.00
2011,07,07,02,32,4.10
2011,07,07,02,33,3.20
2011,07,07,02,34,3.80
2011,07,07,02,35,2.10
2011,07,07,02,36,3.00
2011,07,07,02,37,2.40
2011,07,07,02,38,1.40
2011,07,07,02,39,3.60
2011,07,07,02,40,1.90
2011,07,07,02,41,3.00
2011,07,07,02,42,2.00
2011,07,07,02,43,2.20
2011,07,07,02,44,2.20
2011,07,07,02,45,3.00
2011,07,07,02,46,2.40
2011,07,07,02,47,2.20
2011,07,07,02,48,2.10
2011,07,07,02,49,2.10
2011,07,07,02,50,2.90
2011,07,07,02,51,3.20
2011,07,07,02,52,3.10
2011,07,07,02,53,3.10
2011,07,07,02,54,4.70
2011,07,07,02,55,4.30
2011,07,07,02,56,4.00
2011,07,07,02,57,5.90
2011,07,07,02,58,5.10
2011,07,07,02,59,5.10
2011,07,07,03,00,4.10
2011,07,07,03,01,3.80
2011,07,07,03,02,5.10
2011,07,07,03,03,5.80
2011,07,07,03,04,3.70
2011,07,07,03,05,4.40
2011,07,07,03,06,3.70
2011,07,07,03,07,5.80
2011,07,07,03,08,4.40
2011,07,07,03,09,4.70
2011,07,07,03,10,3.70
2011,07,07,03,11,3.50
2011,07,07,03,12,4.10
2011,07,07,03,13,3.90
2011,07,07,03,14,1.60
2011,07,07,03,15,3.10
2011,07,07,03,16,3.90
2011,07,07,03,17,3.90
2011,07,07,03,18,3.50
2011,07,07,03,19,3.70
2011,07,07,03,20,3.20
2011,07,07,03,21,2.60
2011,07,07,03,22,1.20
2011,07,07,03,23,1.00
2011,07,07,03,24,0.40
2011,07,07,03,25,1.90
2011,07,07,03,26,2.60
2011,07,07,03,27,4.40
2011,07,07,03,28,6.00
2011,07,07,03,29,4.30
2011,07,07,03,30,3.00
2011,07,07,03,31,3.50
2011,07,07,03,32,2.70
2011,07,07,03,33,1.70
2011,07,07,03,34,2.20
2011,07,07,03,35,1.70
2011,07,07,03,36,2.40
2011,07,07,03,37,3.50
2011,07,07,03,38,4.10
2011,07,07,03,39,3.90
2011,07,07,03,40,1.80
2011,07,07,03,41,2.70
2011,07,07,03,42,2.70
2011,07,07,03,43,4.10
2011,07,07,03,44,3.70
2011,07,07,03,45,2.40
2011,07,07,03,46,3.20
2011,07,07,03,47,2.80
2011,07,07,03,48,0.30
2011,07,07,03,49,2.30
2011,07,07,03,50,1.90
2011,07,07,03,51,2.20
2011,07,07,03,52,0.90
2011,07,07,03,53,0.80
2011,07,07,03,54,3.30
2011,07,07,03,55,3.70
2011,07,07,03,56,4.30
2011,07,07,03,57,4.30
2011,07,07,03,58,5.30
2011,07,07,03,59,5.60
2011,07,07,04,00,2.30
2011,07,07,04,01,3.90
2011,07,07,04,02,3.60
2011,07,07,04,03,2.30
2011,07,07,04,04,3.10
2011,07,07,04,05,3.70
2011,07,07,04,06,3.10
2011,07,07,04,07,3.00
2011,07,07,04,08,4.40
2011,07,07,04,09,3.70
2011,07,07,04,10,2.30
2011,07,07,04,11,2.40
2011,07,07,04,12,3.80
2011,07,07,04,13,2.80
2011,07,07,04,14,2.40
2011,07,07,04,15,1.60
2011,07,07,04,16,6.20
2011,07,07,04,17,3.50
2011,07,07,04,18,3.40
2011,07,07,04,19,5.20
2011,07,07,04,20,5.30
2011,07,07,04,21,4.00
2011,07,07,04,22,4.50
2011,07,07,04,23,1.90
2011,07,07,04,24,2.80
2011,07,07,04,25,4.00
2011,07,07,04,26,3.90
2011,07,07,04,27,4.10
2011,07,07,04,28,3.50
2011,07,07,04,29,4.50
2011,07,07,04,30,3.90
2011,07,07,04,31,4.70
2011,07,07,04,32,3.00
2011,07,07,04,33,4.80
2011,07,07,04,34,4.70
2011,07,07,04,35,4.30
2011,07,07,04,36,4.80
2011,07,07,04,37,5.50
2011,07,07,04,38,5.60
2011,07,07,04,39,5.10
2011,07,07,04,40,4.10
2011,07,07,04,41,5.00
2011,07,07,04,42,5.50
2011,07,07,04,43,5.50
2011,07,07,04,44,3.70
2011,07,07,04,45,2.70
2011,07,07,04,46,2.00
2011,07,07,04,47,1.90
2011,07,07,04,48,3.10
2011,07,07,04,49,4.40
2011,07,07,04,50,4.70
2011,07,07,04,51,4.00
2011,07,07,04,52,2.30
2011,07,07,04,53,3.00
2011,07,07,04,54,3.80
2011,07,07,04,55,5.10
2011,07,07,04,56,4.30
2011,07,07,04,57,3.20
2011,07,07,04,58,3.50
2011,07,07,04,59,3.90
2011,07,07,05,00,3.30
2011,07,07,05,01,3.50
2011,07,07,05,02,2.50
2011,07,07,05,03,0.60
2011,07,07,05,04,0.30
2011,07,07,05,05,0.30
2011,07,07,05,06,2.50
2011,07,07,05,07,1.10
2011,07,07,05,08,0.80
2011,07,07,05,09,1.50
2011,07,07,05,10,1.70
2011,07,07,05,11,0.50
2011,07,07,05,12,0.00
2011,07,07,05,13,2.20
2011,07,07,05,14,2.10
2011,07,07,05,15,1.80
2011,07,07,05,16,1.70
2011,07,07,05,17,2.10
2011,07,07,05,18,3.90
2011,07,07,05,19,3.50
2011,07,07,05,20,2.20
2011,07,07,05,21,1.60
2011,07,07,05,22,0.50
2011,07,07,05,23,0.20
2011,07,07,05,24,0.00
2011,07,07,05,25,0.10
2011,07,07,05,26,0.00
2011,07,07,05,27,0.00
2011,07,07,05,28,0.80
2011,07,07,05,29,0.30
2011,07,07,05,30,0.20
2011,07,07,05,31,1.40
2011,07,07,05,32,1.30
2011,07,07,05,33,0.30
2011,07,07,05,34,0.60
2011,07,07,05,35,1.30
2011,07,07,05,36,0.50
2011,07,07,05,37,0.10
2011,07,07,05,38,0.00
2011,07,07,05,39,0.40
2011,07,07,05,40,0.60
2011,07,07,05,41,1.70
2011,07,07,05,42,0.50
2011,07,07,05,43,0.10
2011,07,07,05,44,0.00
2011,07,07,05,45,0.00
2011,07,07,05,46,0.00
2011,07,07,05,47,0.00
2011,07,07,05,48,0.00
2011,07,07,05,49,0.00
2011,07,07,05,50,0.00
2011,07,07,05,51,0.00
2011,07,07,05,52,0.00
2011,07,07,05,53,0.00
2011,07,07,05,54,0.00
2011,07,07,05,55,0.00
2011,07,07,05,56,0.00
2011,07,07,05,57,0.00
2011,07,07,05,58,0.00
2011,07,07,05,59,0.00
2011,07,07,06,00,0.00
2011,07,07,06,01,0.00
2011,07,07,06,02,0.00
2011,07,07,06,03,0.00
2011,07,07,06,04,0.00
2011,07,07,06,05,0.00
2011,07,07,06,06,0.00
2011,07,07,06,07,0.00
2011,07,07,06,08,0.00
2011,07,07,06,09,0.00
2011,07,07,06,10,0.00
2011,07,07,06,11,0.10
2011,07,07,06,12,0.10
2011,07,07,06,13,0.00
2011,07,07,06,14,0.00
2011,07,07,06,15,0.00
2011,07,07,06,16,1.10
2011,07,07,06,17,1.50
2011,07,07,06,18,1.70
2011,07,07,06,19,0.60
2011,07,07,06,20,0.40
2011,07,07,06,21,0.30
2011,07,07,06,22,0.40
2011,07,07,06,23,0.10
2011,07,07,06,24,0.20
2011,07,07,06,25,0.00
2011,07,07,06,26,0.00
2011,07,07,06,27,0.40
2011,07,07,06,28,0.10
2011,07,07,06,29,0.10
2011,07,07,06,30,0.20
2011,07,07,06,31,0.20
2011,07,07,06,32,0.40
2011,07,07,06,33,2.10
2011,07,07,06,34,1.90
2011,07,07,06,35,1.40
2011,07,07,06,36,0.50
2011,07,07,06,37,0.20
2011,07,07,06,38,0.20
2011,07,07,06,39,0.10
2011,07,07,06,40,0.00
2011,07,07,06,41,0.00
2011,07,07,06,42,0.00
2011,07,07,06,43,0.00
2011,07,07,06,44,0.00
2011,07,07,06,45,0.30
2011,07,07,06,46,0.20
2011,07,07,06,47,0.10
2011,07,07,06,48,0.30
2011,07,07,06,49,0.10
2011,07,07,06,50,0.00
2011,07,07,06,51,0.00
2011,07,07,06,52,0.20
2011,07,07,06,53,0.30
2011,07,07,06,54,0.00
2011,07,07,06,55,0.50
2011,07,07,06,56,1.60
2011,07,07,06,57,4.30
2011,07,07,06,58,6.40
2011,07,07,06,59,4.30
2011,07,07,07,00,3.10
2011,07,07,07,01,2.60
2011,07,07,07,02,6.10
2011,07,07,07,03,5.20
2011,07,07,07,04,5.10
2011,07,07,07,05,4.30
2011,07,07,07,06,6.70
2011,07,07,07,07,4.20
2011,07,07,07,08,6.70
2011,07,07,07,09,5.10
2011,07,07,07,10,6.10
2011,07,07,07,11,6.40
2011,07,07,07,12,6.00
2011,07,07,07,13,7.50
2011,07,07,07,14,5.70
2011,07,07,07,15,7.80
2011,07,07,07,16,6.50
2011,07,07,07,17,7.00
2011,07,07,07,18,6.60
2011,07,07,07,19,7.40
2011,07,07,07,20,7.50
2011,07,07,07,21,6.90
2011,07,07,07,22,8.50
2011,07,07,07,23,4.40
2011,07,07,07,24,8.50
2011,07,07,07,25,7.50
2011,07,07,07,26,6.40
2011,07,07,07,27,6.80
2011,07,07,07,28,7.80
2011,07,07,07,29,7.10
2011,07,07,07,30,5.80
2011,07,07,07,31,5.40
2011,07,07,07,32,4.70
2011,07,07,07,33,4.80
2011,07,07,07,34,3.50
2011,07,07,07,35,5.10
2011,07,07,07,36,4.40
2011,07,07,07,37,8.40
2011,07,07,07,38,7.50
2011,07,07,07,39,7.80
2011,07,07,07,40,8.10
2011,07,07,07,41,8.10
2011,07,07,07,42,5.50
2011,07,07,07,43,5.10
2011,07,07,07,44,5.20
2011,07,07,07,45,6.70
2011,07,07,07,46,4.20
2011,07,07,07,47,5.30
2011,07,07,07,48,8.90
2011,07,07,07,49,8.10
2011,07,07,07,50,5.60
2011,07,07,07,51,4.50
2011,07,07,07,52,6.70
2011,07,07,07,53,6.80
2011,07,07,07,54,5.50
2011,07,07,07,55,5.00
2011,07,07,07,56,6.10
2011,07,07,07,57,3.50
2011,07,07,07,58,6.80
2011,07,07,07,59,5.50
2011,07,07,08,00,6.80
2011,07,07,08,01,7.00
2011,07,07,08,02,6.60
2011,07,07,08,03,5.70
2011,07,07,08,04,5.60
2011,07,07,08,05,6.00
2011,07,07,08,06,4.80
2011,07,07,08,07,6.70
2011,07,07,08,08,5.80
2011,07,07,08,09,7.50
2011,07,07,08,10,6.70
2011,07,07,08,11,6.40
2011,07,07,08,12,6.90
2011,07,07,08,13,5.90
2011,07,07,08,14,5.30
2011,07,07,08,15,5.20
2011,07,07,08,16,7.00
2011,07,07,08,17,6.70
2011,07,07,08,18,6.20
2011,07,07,08,19,5.90
2011,07,07,08,20,5.90
2011,07,07,08,21,8.10
2011,07,07,08,22,5.90
2011,07,07,08,23,5.70
2011,07,07,08,24,7.00
2011,07,07,08,25,5.80
2011,07,07,08,26,7.50
2011,07,07,08,27,4.70
2011,07,07,08,28,6.60
2011,07,07,08,29,3.70
2011,07,07,08,30,3.80
2011,07,07,08,31,7.50
2011,07,07,08,32,7.90
2011,07,07,08,33,6.30
2011,07,07,08,34,8.20
2011,07,07,08,35,4.80
2011,07,07,08,36,4.90
2011,07,07,08,37,4.80
2011,07,07,08,38,7.10
2011,07,07,08,39,7.50
2011,07,07,08,40,9.10
2011,07,07,08,41,6.70
2011,07,07,08,42,8.10
2011,07,07,08,43,8.80
2011,07,07,08,44,10.20
2011,07,07,08,45,8.50
2011,07,07,08,46,9.30
2011,07,07,08,47,7.20
2011,07,07,08,48,9.50
2011,07,07,08,49,9.70
2011,07,07,08,50,8.60
2011,07,07,08,51,8.10
2011,07,07,08,52,7.80
2011,07,07,08,53,8.40
2011,07,07,08,54,9.20
2011,07,07,08,55,6.80
2011,07,07,08,56,6.70
2011,07,07,08,57,10.00
2011,07,07,08,58,9.40
2011,07,07,08,59,9.30
2011,07,07,09,00,6.70
2011,07,07,09,01,8.10
2011,07,07,09,02,9.50
2011,07,07,09,03,8.90
2011,07,07,09,04,13.00
2011,07,07,09,05,11.50
2011,07,07,09,06,14.10
2011,07,07,09,07,10.30
2011,07,07,09,08,13.90
2011,07,07,09,09,12.80
2011,07,07,09,10,5.90
2011,07,07,09,11,8.90
2011,07,07,09,12,8.90
2011,07,07,09,13,12.20
2011,07,07,09,14,12.00
2011,07,07,09,15,6.30
2011,07,07,09,16,7.00
2011,07,07,09,17,12.10
2011,07,07,09,18,9.50
2011,07,07,09,19,7.70
2011,07,07,09,20,6.90
2011,07,07,09,21,7.70
2011,07,07,09,22,7.20
2011,07,07,09,23,8.90
2011,07,07,09,24,5.60
2011,07,07,09,25,8.40
2011,07,07,09,26,10.90
2011,07,07,09,27,7.00
2011,07,07,09,28,4.70
2011,07,07,09,29,7.40
2011,07,07,09,30,6.00
2011,07,07,09,31,8.90
2011,07,07,09,32,8.60
2011,07,07,09,33,7.70
2011,07,07,09,34,6.90
2011,07,07,09,35,5.30
2011,07,07,09,36,8.40
2011,07,07,09,37,6.60
2011,07,07,09,38,10.40
2011,07,07,09,39,9.20
2011,07,07,09,40,6.80
2011,07,07,09,41,6.90
2011,07,07,09,42,9.40
2011,07,07,09,43,8.10
2011,07,07,09,44,9.80
2011,07,07,09,45,7.10
2011,07,07,09,46,8.10
2011,07,07,09,47,10.00
2011,07,07,09,48,9.10
2011,07,07,09,49,9.00
2011,07,07,09,50,10.70
2011,07,07,09,51,9.90
2011,07,07,09,52,11.20
2011,07,07,09,53,10.80
2011,07,07,09,54,9.30
2011,07,07,09,55,7.60
2011,07,07,09,56,13.00
2011,07,07,09,57,12.10
2011,07,07,09,58,14.40
2011,07,07,09,59,10.40
2011,07,07,10,00,9.20
2011,07,07,10,01,15.00
2011,07,07,10,02,11.70
2011,07,07,10,03,13.60
2011,07,07,10,04,12.60
2011,07,07,10,05,14.00
2011,07,07,10,06,13.40
2011,07,07,10,07,7.40
2011,07,07,10,08,10.40
2011,07,07,10,09,8.00
2011,07,07,10,10,9.70
2011,07,07,10,11,9.00
2011,07,07,10,12,8.60
2011,07,07,10,13,9.80
2011,07,07,10,14,9.30
2011,07,07,10,15,6.00
2011,07,07,10,16,13.70
2011,07,07,10,17,14.20
2011,07,07,10,18,12.10
2011,07,07,10,19,11.00
2011,07,07,10,20,7.70
2011,07,07,10,21,14.90
2011,07,07,10,22,15.70
2011,07,07,10,23,16.60
2011,07,07,10,24,11.30
2011,07,07,10,25,12.50
2011,07,07,10,26,14.70
2011,07,07,10,27,14.90
2011,07,07,10,28,20.90
2011,07,07,10,29,20.50
2011,07,07,10,30,15.40
2011,07,07,10,31,10.50
2011,07,07,10,32,10.70
2011,07,07,10,33,15.80
2011,07,07,10,34,20.30
2011,07,07,10,35,15.20
2011,07,07,10,36,13.70
2011,07,07,10,37,11.40
2011,07,07,10,38,17.50
2011,07,07,10,39,8.90
2011,07,07,10,40,8.90
2011,07,07,10,41,12.60
2011,07,07,10,42,19.70
2011,07,07,10,43,15.70
2011,07,07,10,44,13.60
2011,07,07,10,45,16.00
2011,07,07,10,46,18.50
2011,07,07,10,47,14.30
2011,07,07,10,48,9.00
2011,07,07,10,49,9.40
2011,07,07,10,50,13.40
2011,07,07,10,51,16.60
2011,07,07,10,52,14.60
2011,07,07,10,53,9.90
2011,07,07,10,54,12.70
2011,07,07,10,55,18.20
2011,07,07,10,56,18.50
2011,07,07,10,57,21.30
2011,07,07,10,58,13.50
2011,07,07,10,59,17.00
2011,07,07,11,00,12.20
2011,07,07,11,01,12.70
2011,07,07,11,02,13.00
2011,07,07,11,03,11.10
2011,07,07,11,04,8.40
2011,07,07,11,05,11.30
2011,07,07,11,06,14.10
2011,07,07,11,07,14.30
2011,07,07,11,08,14.80
2011,07,07,11,09,13.30
2011,07,07,11,10,13.30
2011,07,07,11,11,12.20
2011,07,07,11,12,17.30
2011,07,07,11,13,14.10
2011,07,07,11,14,12.10
2011,07,07,11,15,11.90
2011,07,07,11,16,13.20
2011,07,07,11,17,13.50
2011,07,07,11,18,14.70
2011,07,07,11,19,11.50
2011,07,07,11,20,13.80
2011,07,07,11,21,19.20
2011,07,07,11,22,11.60
2011,07,07,11,23,13.30
2011,07,07,11,24,15.90
2011,07,07,11,25,16.70
2011,07,07,11,26,17.30
2011,07,07,11,27,17.50
2011,07,07,11,28,17.90
2011,07,07,11,29,14.90
2011,07,07,11,30,15.80
2011,07,07,11,31,20.00
2011,07,07,11,32,14.50
2011,07,07,11,33,14.70
2011,07,07,11,34,14.90
2011,07,07,11,35,21.80
2011,07,07,11,36,16.30
2011,07,07,11,37,17.50
2011,07,07,11,38,18.20
2011,07,07,11,39,11.50
2011,07,07,11,40,13.00
2011,07,07,11,41,19.80
2011,07,07,11,42,16.40
2011,07,07,11,43,16.80
2011,07,07,11,44,22.40
2011,07,07,11,45,16.60
2011,07,07,11,46,22.60
2011,07,07,11,47,13.60
2011,07,07,11,48,20.00
2011,07,07,11,49,20.10
2011,07,07,11,50,20.70
2011,07,07,11,51,16.30
2011,07,07,11,52,14.50
2011,07,07,11,53,14.90
2011,07,07,11,54,18.00
2011,07,07,11,55,21.30
2011,07,07,11,56,16.10
2011,07,07,11,57,13.30
2011,07,07,11,58,15.70
2011,07,07,11,59,15.10
2011,07,07,12,00,17.20
2011,07,07,12,01,17.30
2011,07,07,12,02,21.20
2011,07,07,12,03,14.50
2011,07,07,12,04,15.00
2011,07,07,12,05,16.40
2011,07,07,12,06,16.20
2011,07,07,12,07,20.00
2011,07,07,12,08,11.10
2011,07,07,12,09,17.40
2011,07,07,12,10,21.80
2011,07,07,12,11,20.30
2011,07,07,12,12,18.20
2011,07,07,12,13,12.00
2011,07,07,12,14,15.00
2011,07,07,12,15,21.00
2011,07,07,12,16,19.20
2011,07,07,12,17,15.80
2011,07,07,12,18,15.80
2011,07,07,12,19,21.60
2011,07,07,12,20,21.40
2011,07,07,12,21,22.10
2011,07,07,12,22,16.90
2011,07,07,12,23,17.50
2011,07,07,12,24,20.50
2011,07,07,12,25,20.80
2011,07,07,12,26,14.70
2011,07,07,12,27,14.10
2011,07,07,12,28,24.70
2011,07,07,12,29,26.00
2011,07,07,12,30,23.30
2011,07,07,12,31,18.80
2011,07,07,12,32,20.80
2011,07,07,12,33,25.30
2011,07,07,12,34,25.20
2011,07,07,12,35,22.40
2011,07,07,12,36,24.80
2011,07,07,12,37,18.60
2011,07,07,12,38,22.10
2011,07,07,12,39,18.60
2011,07,07,12,40,21.80
2011,07,07,12,41,14.60
2011,07,07,12,42,22.20
2011,07,07,12,43,18.10
2011,07,07,12,44,16.20
2011,07,07,12,45,10.50
2011,07,07,12,46,12.00
2011,07,07,12,47,17.90
2011,07,07,12,48,9.70
2011,07,07,12,49,19.50
2011,07,07,12,50,18.70
2011,07,07,12,51,15.20
2011,07,07,12,52,20.20
2011,07,07,12,53,15.30
2011,07,07,12,54,20.30
2011,07,07,12,55,15.30
2011,07,07,12,56,23.50
2011,07,07,12,57,21.40
2011,07,07,12,58,16.30
2011,07,07,12,59,12.90
2011,07,07,13,00,21.50
2011,07,07,13,01,20.70
2011,07,07,13,02,20.50
2011,07,07,13,03,19.40
2011,07,07,13,04,17.80
2011,07,07,13,05,19.40
2011,07,07,13,06,24.10
2011,07,07,13,07,22.50
2011,07,07,13,08,24.10
2011,07,07,13,09,21.50
2011,07,07,13,10,24.30
2011,07,07,13,11,15.90
2011,07,07,13,12,20.40
2011,07,07,13,13,22.30
2011,07,07,13,14,18.30
2011,07,07,13,15,16.80
2011,07,07,13,16,16.50
2011,07,07,13,17,18.60
2011,07,07,13,18,24.50
2011,07,07,13,19,24.90
2011,07,07,13,20,23.00
2011,07,07,13,21,22.90
2011,07,07,13,22,23.10
2011,07,07,13,23,23.60
2011,07,07,13,24,22.80
2011,07,07,13,25,22.20
2011,07,07,13,26,20.40
2011,07,07,13,27,24.70
2011,07,07,13,28,23.30
2011,07,07,13,29,29.00
2011,07,07,13,30,23.20
2011,07,07,13,31,24.10
2011,07,07,13,32,21.50
2011,07,07,13,33,22.00
2011,07,07,13,34,20.30
2011,07,07,13,35,19.50
2011,07,07,13,36,19.30
2011,07,07,13,37,21.40
2011,07,07,13,38,24.50
2011,07,07,13,39,24.50
2011,07,07,13,40,22.00
2011,07,07,13,41,20.10
2011,07,07,13,42,23.20
2011,07,07,13,43,21.20
2011,07,07,13,44,22.40
2011,07,07,13,45,26.10
2011,07,07,13,46,22.10
2011,07,07,13,47,21.20
2011,07,07,13,48,23.30
2011,07,07,13,49,28.20
2011,07,07,13,50,28.30
2011,07,07,13,51,32.20
2011,07,07,13,52,27.00
2011,07,07,13,53,23.20
2011,07,07,13,54,32.40
2011,07,07,13,55,30.20
2011,07,07,13,56,28.20
2011,07,07,13,57,25.90
2011,07,07,13,58,20.90
2011,07,07,13,59,22.70
2011,07,07,14,00,23.40
2011,07,07,14,01,24.20
2011,07,07,14,02,25.70
2011,07,07,14,03,21.30
2011,07,07,14,04,23.10
2011,07,07,14,05,17.70
2011,07,07,14,06,21.50
2011,07,07,14,07,24.50
2011,07,07,14,08,23.20
2011,07,07,14,09,24.80
2011,07,07,14,10,19.10
2011,07,07,14,11,19.90
2011,07,07,14,12,17.10
2011,07,07,14,13,16.30
2011,07,07,14,14,18.40
2011,07,07,14,15,16.10
2011,07,07,14,16,8.90
2011,07,07,14,17,17.90
2011,07,07,14,18,16.50
2011,07,07,14,19,19.20
2011,07,07,14,20,18.70
2011,07,07,14,21,17.50
2011,07,07,14,22,20.20
2011,07,07,14,23,27.40
2011,07,07,14,24,15.90
2011,07,07,14,25,18.00
2011,07,07,14,26,21.30
2011,07,07,14,27,16.50
2011,07,07,14,28,19.60
2011,07,07,14,29,20.30
2011,07,07,14,30,19.70
2011,07,07,14,31,20.30
2011,07,07,14,32,16.40
2011,07,07,14,33,13.50
2011,07,07,14,34,19.80
2011,07,07,14,35,20.80
2011,07,07,14,36,23.50
2011,07,07,14,37,20.00
2011,07,07,14,38,17.90
2011,07,07,14,39,19.50
2011,07,07,14,40,26.20
2011,07,07,14,41,25.40
2011,07,07,14,42,15.60
2011,07,07,14,43,16.00
2011,07,07,14,44,25.70
2011,07,07,14,45,20.20
2011,07,07,14,46,25.70
2011,07,07,14,47,27.20
2011,07,07,14,48,23.30
2011,07,07,14,49,24.40
2011,07,07,14,50,25.30
2011,07,07,14,51,24.10
2011,07,07,14,52,24.00
2011,07,07,14,53,23.80
2011,07,07,14,54,25.10
2011,07,07,14,55,19.30
2011,07,07,14,56,18.10
2011,07,07,14,57,22.70
2011,07,07,14,58,26.80
2011,07,07,14,59,20.00
2011,07,07,15,00,19.20
2011,07,07,15,01,18.00
2011,07,07,15,02,24.50
2011,07,07,15,03,19.60
2011,07,07,15,04,15.60
2011,07,07,15,05,20.20
2011,07,07,15,06,21.90
2011,07,07,15,07,21.10
2011,07,07,15,08,19.70
2011,07,07,15,09,20.00
2011,07,07,15,10,13.40
2011,07,07,15,11,22.30
2011,07,07,15,12,21.50
2011,07,07,15,13,29.40
2011,07,07,15,14,23.50
2011,07,07,15,15,21.60
2011,07,07,15,16,19.10
2011,07,07,15,17,17.60
2011,07,07,15,18,20.10
2011,07,07,15,19,26.10
2011,07,07,15,20,21.70
2011,07,07,15,21,21.40
2011,07,07,15,22,21.00
2011,07,07,15,23,20.20
2011,07,07,15,24,23.40
2011,07,07,15,25,28.20
2011,07,07,15,26,23.40
2011,07,07,15,27,27.70
2011,07,07,15,28,35.20
2011,07,07,15,29,23.50
2011,07,07,15,30,20.20
2011,07,07,15,31,18.00
2011,07,07,15,32,19.60
2011,07,07,15,33,18.70
2011,07,07,15,34,13.50
2011,07,07,15,35,16.60
2011,07,07,15,36,21.40
2011,07,07,15,37,20.30
2011,07,07,15,38,19.40
2011,07,07,15,39,21.80
2011,07,07,15,40,15.20
2011,07,07,15,41,20.80
2011,07,07,15,42,23.10
2011,07,07,15,43,25.60
2011,07,07,15,44,22.60
2011,07,07,15,45,22.50
2011,07,07,15,46,22.60
2011,07,07,15,47,27.00
2011,07,07,15,48,16.20
2011,07,07,15,49,14.70
2011,07,07,15,50,25.10
2011,07,07,15,51,22.60
2011,07,07,15,52,21.70
2011,07,07,15,53,16.20
2011,07,07,15,54,21.10
2011,07,07,15,55,18.40
2011,07,07,15,56,27.20
2011,07,07,15,57,30.10
2011,07,07,15,58,24.40
2011,07,07,15,59,25.60
2011,07,07,16,00,24.70
2011,07,07,16,01,29.00
2011,07,07,16,02,23.50
2011,07,07,16,03,21.00
2011,07,07,16,04,21.50
2011,07,07,16,05,29.00
2011,07,07,16,06,22.70
2011,07,07,16,07,26.60
2011,07,07,16,08,25.30
2011,07,07,16,09,23.40
2011,07,07,16,10,17.20
2011,07,07,16,11,13.20
2011,07,07,16,12,27.10
2011,07,07,16,13,30.40
2011,07,07,16,14,25.90
2011,07,07,16,15,30.40
2011,07,07,16,16,24.20
2011,07,07,16,17,27.00
2011,07,07,16,18,30.00
2011,07,07,16,19,24.50
2011,07,07,16,20,30.70
2011,07,07,16,21,31.30
2011,07,07,16,22,26.40
2011,07,07,16,23,23.50
2011,07,07,16,24,25.50
2011,07,07,16,25,28.50
2011,07,07,16,26,26.70
2011,07,07,16,27,22.80
2011,07,07,16,28,28.20
2011,07,07,16,29,29.10
2011,07,07,16,30,24.90
2011,07,07,16,31,30.40
2011,07,07,16,32,26.10
2011,07,07,16,33,28.00
2011,07,07,16,34,24.40
2011,07,07,16,35,20.70
2011,07,07,16,36,28.70
2011,07,07,16,37,26.10
2011,07,07,16,38,27.00
2011,07,07,16,39,22.80
2011,07,07,16,40,27.70
2011,07,07,16,41,26.90
2011,07,07,16,42,17.30
2011,07,07,16,43,27.80
2011,07,07,16,44,22.40
2011,07,07,16,45,25.30
2011,07,07,16,46,17.40
2011,07,07,16,47,20.60
2011,07,07,16,48,21.00
2011,07,07,16,49,24.10
2011,07,07,16,50,22.60
2011,07,07,16,51,23.30
2011,07,07,16,52,19.00
2011,07,07,16,53,25.90
2011,07,07,16,54,29.40
2011,07,07,16,55,28.30
2011,07,07,16,56,25.80
2011,07,07,16,57,20.00
2011,07,07,16,58,20.70
2011,07,07,16,59,19.20
2011,07,07,17,00,18.00
2011,07,07,17,01,24.50
2011,07,07,17,02,22.40
2011,07,07,17,03,24.40
2011,07,07,17,04,22.80
2011,07,07,17,05,30.70
2011,07,07,17,06,31.50
2011,07,07,17,07,22.00
2011,07,07,17,08,25.70
2011,07,07,17,09,17.50
2011,07,07,17,10,16.90
2011,07,07,17,11,16.40
2011,07,07,17,12,18.60
2011,07,07,17,13,27.50
2011,07,07,17,14,22.30
2011,07,07,17,15,25.70
2011,07,07,17,16,21.20
2011,07,07,17,17,22.30
2011,07,07,17,18,22.00
2011,07,07,17,19,25.80
2011,07,07,17,20,26.20
2011,07,07,17,21,22.00
2011,07,07,17,22,18.90
2011,07,07,17,23,21.80
2011,07,07,17,24,24.30
2011,07,07,17,25,21.80
2011,07,07,17,26,21.40
2011,07,07,17,27,26.30
2011,07,07,17,28,22.40
2011,07,07,17,29,26.30
2011,07,07,17,30,22.40
2011,07,07,17,31,25.40
2011,07,07,17,32,24.10
2011,07,07,17,33,22.90
2011,07,07,17,34,20.80
2011,07,07,17,35,26.20
2011,07,07,17,36,26.20
2011,07,07,17,37,24.80
2011,07,07,17,38,20.00
2011,07,07,17,39,21.00
2011,07,07,17,40,16.30
2011,07,07,17,41,20.20
2011,07,07,17,42,22.30
2011,07,07,17,43,18.70
2011,07,07,17,44,17.90
2011,07,07,17,45,14.20